| time (UTC) | temp C | wind direction | speed KPH | gust KPH | rain 1hr cm | rain 24hr cm | rain mn cm | humidity % | barometer mb |
| 20260510073323 | 21 | 243 | 3.2 | 4.8 | 0.05 | 0.00 | 0.00 | 91 | 1013.6 |
| 20260510072819 | 21 | 279 | 1.6 | 6.4 | 0.00 | 0.00 | 0.00 | 91 | 1012.7 |
| 20260510072316 | 20 | 23 | 0.0 | 4.8 | 0.00 | 0.00 | 0.00 | 91 | 1012.8 |
| 20260510071813 | 21 | 60 | 0.0 | 3.2 | 0.00 | 0.00 | 0.00 | 91 | 1013.6 |
| 20260510071308 | 20 | 33 | 0.0 | 3.2 | 0.00 | 0.00 | 0.00 | 91 | 1014.1 |
| 20260510070808 | 20 | 346 | 0.0 | 3.2 | 0.00 | 0.00 | 0.00 | 91 | 1014.3 |
| 20260510070304 | 20 | 289 | 0.0 | 0.0 | 0.00 | 0.00 | 0.00 | 91 | 1014.2 |
| 20260510065804 | 20 | 275 | 0.0 | 1.6 | 0.00 | 0.00 | 0.00 | 91 | 1014.0 |
| 20260510065301 | 20 | 321 | 0.0 | 1.6 | 0.00 | 0.00 | 0.00 | 91 | 1014.0 |
| 20260510064758 | 20 | 22 | 0.0 | 3.2 | 0.00 | 0.00 | 0.00 | 91 | 1014.0 |
| 20260510064256 | 20 | 35 | 0.0 | 3.2 | 0.00 | 0.00 | 0.00 | 91 | 1013.9 |
| 20260510063751 | 20 | 23 | 0.0 | 3.2 | 0.00 | 0.00 | 0.00 | 91 | 1014.1 |
| 20260510063248 | 20 | 50 | 0.0 | 3.2 | 0.00 | 0.00 | 0.00 | 91 | 1013.9 |
| 20260510062745 | 20 | 326 | 0.0 | 3.2 | 0.00 | 0.00 | 0.00 | 91 | 1014.0 |
| 20260510062240 | 20 | 311 | 0.0 | 1.6 | 0.00 | 0.00 | 0.00 | 91 | 1014.3 |
| 20260510061736 | 20 | 318 | 0.0 | 1.6 | 0.00 | 0.00 | 0.00 | 91 | 1014.4 |
| 20260510061233 | 20 | 328 | 0.0 | 1.6 | 0.00 | 0.00 | 0.00 | 91 | 1014.3 |
| 20260510060729 | 20 | 29 | 0.0 | 1.6 | 0.00 | 0.00 | 0.00 | 91 | 1014.2 |
| 20260510060226 | 20 | 29 | 0.0 | 3.2 | 0.00 | 0.00 | 0.00 | 91 | 1014.3 |
| 20260510055723 | 20 | 41 | 0.0 | 1.6 | 0.00 | 0.00 | 0.00 | 91 | 1014.2 |
| 20260510055222 | 20 | 318 | 0.0 | 0.0 | 0.00 | 0.00 | 0.00 | 91 | 1014.6 |
| 20260510054721 | 20 | 318 | 0.0 | 0.0 | 0.00 | 0.00 | 0.00 | 91 | 1014.6 |
| 20260510054217 | 20 | 328 | 0.0 | 1.6 | 0.00 | 0.00 | 0.00 | 91 | 1014.8 |
| 20260510053711 | 20 | 14 | 0.0 | 1.6 | 0.00 | 0.00 | 0.00 | 91 | 1014.5 |
| 20260510053208 | 20 | 328 | 0.0 | 0.0 | 0.00 | 0.00 | 0.00 | 91 | 1014.7 |
| 20260510052704 | 20 | 17 | 0.0 | 1.6 | 0.00 | 0.00 | 0.00 | 91 | 1014.8 |
| 20260510052200 | 20 | 227 | 0.0 | 0.0 | 0.00 | 0.00 | 0.00 | 91 | 1014.8 |
| 20260510051656 | 20 | 318 | 0.0 | 1.6 | 0.00 | 0.00 | 0.00 | 91 | 1015.0 |
| 20260510051152 | 20 | 294 | 0.0 | 1.6 | 0.00 | 0.00 | 0.00 | 91 | 1014.9 |
| 20260510050650 | 20 | 326 | 0.0 | 0.0 | 0.00 | 0.00 | 0.00 | 91 | 1015.1 |
| 20260510050147 | 20 | 326 | 0.0 | 0.0 | 0.00 | 0.00 | 0.00 | 91 | 1015.0 |
| 20260510045643 | 20 | 330 | 0.0 | 0.0 | 0.00 | 0.00 | 0.00 | 91 | 1015.2 |
| 20260510045140 | 20 | 294 | 0.0 | 1.6 | 0.00 | 0.00 | 0.00 | 91 | 1015.3 |
| 20260510044636 | 20 | 345 | 0.0 | 1.6 | 0.00 | 0.00 | 0.00 | 91 | 1015.2 |
| 20260510044134 | 20 | 304 | 0.0 | 1.6 | 0.00 | 0.00 | 0.00 | 91 | 1015.3 |
| 20260510043630 | 20 | 33 | 0.0 | 1.6 | 0.00 | 0.00 | 0.00 | 91 | 1015.3 |
| 20260510043126 | 20 | 282 | 0.0 | 1.6 | 0.00 | 0.00 | 0.00 | 91 | 1015.0 |
| 20260510042624 | 20 | 282 | 0.0 | 1.6 | 0.00 | 0.00 | 0.00 | 91 | 1015.1 |
| 20260510042119 | 20 | 358 | 0.0 | 0.0 | 0.00 | 0.00 | 0.00 | 91 | 1015.1 |
| 20260510041617 | 20 | 358 | 0.0 | 1.6 | 0.00 | 0.00 | 0.00 | 91 | 1015.3 |
| 20260510041114 | 20 | 17 | 0.0 | 1.6 | 0.00 | 0.00 | 0.00 | 91 | 1015.3 |
| 20260510040611 | 20 | 10 | 0.0 | 0.0 | 0.00 | 0.00 | 0.00 | 91 | 1015.3 |
| 20260510040108 | 20 | 10 | 0.0 | 0.0 | 0.00 | 0.66 | 0.66 | 91 | 1015.1 |
| 20260510035603 | 20 | 10 | 0.0 | 0.0 | 0.00 | 0.66 | 0.66 | 91 | 1015.0 |
| 20260510035058 | 20 | 10 | 0.0 | 0.0 | 0.00 | 0.66 | 0.66 | 91 | 1015.0 |
| 20260510034556 | 20 | 10 | 0.0 | 0.0 | 0.00 | 0.66 | 0.66 | 91 | 1015.2 |
| 20260510034053 | 20 | 29 | 0.0 | 0.0 | 0.00 | 0.66 | 0.66 | 91 | 1015.3 |
| 20260510033549 | 20 | 29 | 0.0 | 0.0 | 0.00 | 0.66 | 0.66 | 91 | 1015.3 |
| 20260510033047 | 20 | 29 | 0.0 | 1.6 | 0.00 | 0.66 | 0.66 | 91 | 1015.3 |
| 20260510032543 | 20 | 254 | 0.0 | 0.0 | 0.00 | 0.66 | 0.66 | 91 | 1015.3 |
| 20260510032039 | 20 | 254 | 0.0 | 0.0 | 0.00 | 0.66 | 0.66 | 91 | 1015.3 |
| 20260510031539 | 20 | 282 | 0.0 | 0.0 | 0.00 | 0.66 | 0.66 | 91 | 1015.2 |
| 20260510031035 | 20 | 282 | 0.0 | 0.0 | 0.00 | 0.66 | 0.66 | 91 | 1015.0 |
| 20260510030530 | 20 | 282 | 0.0 | 1.6 | 0.00 | 0.66 | 0.66 | 91 | 1014.9 |
| 20260510030028 | 20 | 311 | 0.0 | 0.0 | 0.00 | 0.66 | 0.66 | 91 | 1014.8 |
| 20260510025525 | 20 | 319 | 0.0 | 1.6 | 0.00 | 0.66 | 0.66 | 91 | 1014.8 |
| 20260510025023 | 20 | 307 | 0.0 | 1.6 | 0.00 | 0.66 | 0.66 | 91 | 1014.7 |
| 20260510024519 | 20 | 25 | 0.0 | 1.6 | 0.00 | 0.66 | 0.66 | 91 | 1014.7 |
| 20260510024015 | 20 | 269 | 0.0 | 0.0 | 0.00 | 0.66 | 0.66 | 91 | 1014.8 |
| 20260510023511 | 20 | 269 | 0.0 | 0.0 | 0.00 | 0.66 | 0.66 | 91 | 1014.7 |
| 20260510023009 | 20 | 274 | 0.0 | 1.6 | 0.00 | 0.66 | 0.66 | 91 | 1014.7 |
| 20260510022508 | 20 | 227 | 0.0 | 0.0 | 0.00 | 0.66 | 0.66 | 91 | 1014.4 |
| 20260510022008 | 20 | 231 | 0.0 | 0.0 | 0.00 | 0.66 | 0.66 | 91 | 1014.4 |
| 20260510021505 | 20 | 45 | 0.0 | 0.0 | 0.00 | 0.66 | 0.66 | 91 | 1014.4 |
| 20260510021002 | 20 | 45 | 0.0 | 1.6 | 0.00 | 0.66 | 0.66 | 91 | 1014.1 |
| 20260510020456 | 20 | 275 | 0.0 | 0.0 | 0.00 | 0.66 | 0.66 | 91 | 1014.1 |
| 20260510015952 | 20 | 266 | 0.0 | 1.6 | 0.00 | 0.66 | 0.66 | 91 | 1014.5 |
| 20260510015448 | 20 | 241 | 0.0 | 3.2 | 0.00 | 0.66 | 0.66 | 91 | 1014.4 |
| 20260510014943 | 20 | 324 | 0.0 | 1.6 | 0.00 | 0.66 | 0.66 | 91 | 1014.3 |
| 20260510014441 | 20 | 341 | 1.6 | 3.2 | 0.00 | 0.66 | 0.66 | 91 | 1014.4 |
| 20260510013938 | 20 | 5 | 1.6 | 3.2 | 0.00 | 0.66 | 0.66 | 91 | 1014.5 |
| 20260510013432 | 20 | 275 | 1.6 | 6.4 | 0.00 | 0.66 | 0.66 | 91 | 1014.3 |
| 20260510012928 | 20 | 237 | 0.0 | 3.2 | 0.00 | 0.66 | 0.66 | 91 | 1014.2 |
| 20260510012423 | 20 | 227 | 0.0 | 1.6 | 0.00 | 0.66 | 0.66 | 91 | 1014.2 |
| 20260510011918 | 20 | 278 | 0.0 | 3.2 | 0.00 | 0.66 | 0.66 | 91 | 1013.9 |
| 20260510011413 | 20 | 240 | 0.0 | 1.6 | 0.00 | 0.66 | 0.66 | 91 | 1013.9 |
| 20260510010910 | 20 | 269 | 0.0 | 1.6 | 0.00 | 0.66 | 0.66 | 91 | 1013.8 |
| 20260510010407 | 21 | 227 | 0.0 | 3.2 | 0.00 | 0.66 | 0.66 | 91 | 1013.9 |
| 20260510005904 | 21 | 274 | 0.0 | 1.6 | 0.00 | 0.66 | 0.66 | 91 | 1013.8 |
| 20260510005400 | 21 | 267 | 3.2 | 4.8 | 0.00 | 0.66 | 0.66 | 91 | 1013.9 |
| 20260510004857 | 21 | 246 | 1.6 | 3.2 | 0.00 | 0.66 | 0.66 | 91 | 1013.7 |
| 20260510004355 | 21 | 278 | 0.0 | 0.0 | 0.00 | 0.66 | 0.66 | 91 | 1013.6 |
| 20260510003853 | 21 | 278 | 0.0 | 0.0 | 0.00 | 0.66 | 0.66 | 91 | 1013.5 |
| 20260510003349 | 21 | 241 | 0.0 | 0.0 | 0.00 | 0.66 | 0.66 | 91 | 1013.6 |
| 20260510002848 | 21 | 254 | 0.0 | 3.2 | 0.00 | 0.66 | 0.66 | 91 | 1013.8 |
| 20260510002346 | 21 | 263 | 0.0 | 3.2 | 0.00 | 0.66 | 0.66 | 91 | 1013.8 |
| 20260510001842 | 21 | 227 | 0.0 | 0.0 | 0.00 | 0.66 | 0.66 | 91 | 1013.9 |
| 20260510001340 | 21 | 227 | 0.0 | 1.6 | 0.05 | 0.66 | 0.66 | 91 | 1013.9 |
| 20260510000836 | 21 | 228 | 0.0 | 3.2 | 0.05 | 0.66 | 0.66 | 91 | 1014.1 |
| 20260510000333 | 21 | 240 | 0.0 | 3.2 | 0.00 | 0.66 | 0.66 | 91 | 1014.5 |
| 20260509235830 | 21 | 248 | 4.8 | 4.8 | 0.00 | 0.66 | 0.66 | 91 | 1014.3 |
| 20260509235327 | 21 | 243 | 1.6 | 8.0 | 0.00 | 0.66 | 0.66 | 91 | 1014.3 |
| 20260509234822 | 21 | 218 | 1.6 | 4.8 | 0.00 | 0.66 | 0.66 | 91 | 1014.1 |
| 20260509234319 | 21 | 215 | 0.0 | 1.6 | 0.00 | 0.66 | 0.66 | 91 | 1014.0 |
| 20260509233818 | 21 | 227 | 0.0 | 0.0 | 0.00 | 0.66 | 0.66 | 91 | 1014.2 |
| 20260509233315 | 21 | 254 | 0.0 | 1.6 | 0.00 | 0.66 | 0.66 | 91 | 1014.1 |
| 20260509232810 | 21 | 202 | 0.0 | 1.6 | 0.05 | 0.66 | 0.66 | 91 | 1014.1 |
| 20260509232308 | 21 | 233 | 0.0 | 1.6 | 0.05 | 0.66 | 0.66 | 91 | 1013.9 |
| 20260509231804 | 21 | 273 | 0.0 | 1.6 | 0.00 | 0.66 | 0.66 | 91 | 1013.9 |
| 20260509231301 | 21 | 320 | 0.0 | 4.8 | 0.00 | 0.66 | 0.66 | 91 | 1013.8 |
| 20260509230759 | 21 | 254 | 0.0 | 1.6 | 0.00 | 0.66 | 0.66 | 91 | 1013.8 |
| 20260509230256 | 21 | 254 | 1.6 | 4.8 | 0.00 | 0.66 | 0.66 | 91 | 1014.1 |
| 20260509225751 | 21 | 231 | 0.0 | 3.2 | 0.00 | 0.66 | 0.66 | 91 | 1013.9 |
| 20260509225247 | 21 | 47 | 0.0 | 0.0 | 0.05 | 0.66 | 0.66 | 91 | 1013.8 |
| 20260509224743 | 21 | 47 | 0.0 | 0.0 | 0.05 | 0.66 | 0.66 | 91 | 1013.8 |
| 20260509224241 | 21 | 47 | 0.0 | 0.0 | 0.00 | 0.64 | 0.64 | 91 | 1013.9 |
| 20260509223737 | 21 | 215 | 0.0 | 0.0 | 0.00 | 0.64 | 0.64 | 91 | 1013.8 |
| 20260509223234 | 21 | 215 | 0.0 | 0.0 | 0.00 | 0.64 | 0.64 | 91 | 1013.8 |
| 20260509222731 | 21 | 294 | 0.0 | 0.0 | 0.00 | 0.64 | 0.64 | 91 | 1013.7 |
| 20260509222226 | 21 | 294 | 0.0 | 0.0 | 0.00 | 0.64 | 0.64 | 91 | 1013.7 |
| 20260509221722 | 21 | 240 | 0.0 | 1.6 | 0.00 | 0.64 | 0.64 | 91 | 1013.7 |
| 20260509221219 | 21 | 282 | 0.0 | 1.6 | 0.00 | 0.64 | 0.64 | 91 | 1013.7 |
| 20260509220714 | 21 | 242 | 0.0 | 1.6 | 0.00 | 0.64 | 0.64 | 91 | 1013.6 |
| 20260509220211 | 21 | 268 | 0.0 | 0.0 | 0.00 | 0.64 | 0.64 | 91 | 1013.8 |
| 20260509215707 | 21 | 336 | 0.0 | 1.6 | 0.00 | 0.64 | 0.64 | 91 | 1013.8 |
| 20260509215204 | 21 | 35 | 0.0 | 3.2 | 0.00 | 0.64 | 0.64 | 91 | 1013.6 |
| 20260509214701 | 21 | 61 | 0.0 | 4.8 | 0.00 | 0.64 | 0.64 | 91 | 1013.7 |
| 20260509214158 | 21 | 294 | 0.0 | 3.2 | 0.00 | 0.64 | 0.64 | 91 | 1013.6 |
| 20260509213655 | 21 | 24 | 0.0 | 4.8 | 0.00 | 0.64 | 0.64 | 91 | 1013.7 |
| 20260509213150 | 21 | 15 | 3.2 | 6.4 | 0.00 | 0.64 | 0.64 | 91 | 1013.5 |
| 20260509212648 | 21 | 345 | 0.0 | 4.8 | 0.00 | 0.64 | 0.64 | 91 | 1013.7 |
| 20260509212144 | 21 | 358 | 1.6 | 6.4 | 0.00 | 0.64 | 0.64 | 91 | 1013.7 |
| 20260509211640 | 21 | 15 | 3.2 | 4.8 | 0.00 | 0.64 | 0.64 | 91 | 1013.7 |
| 20260509211137 | 21 | 45 | 0.0 | 4.8 | 0.00 | 0.64 | 0.64 | 91 | 1014.0 |
| 20260509210635 | 21 | 0 | 0.0 | 4.8 | 0.00 | 0.64 | 0.64 | 91 | 1013.8 |
| 20260509210131 | 21 | 22 | 4.8 | 6.4 | 0.00 | 0.64 | 0.64 | 91 | 1013.7 |
| 20260509205626 | 21 | 20 | 0.0 | 4.8 | 0.00 | 0.64 | 0.64 | 91 | 1013.9 |
| 20260509205120 | 21 | 356 | 1.6 | 4.8 | 0.00 | 0.64 | 0.64 | 91 | 1014.1 |
| 20260509204617 | 21 | 349 | 3.2 | 4.8 | 0.00 | 0.64 | 0.64 | 91 | 1013.9 |
| 20260509204114 | 20 | 11 | 1.6 | 9.7 | 0.00 | 0.64 | 0.64 | 91 | 1013.9 |
| 20260509203610 | 21 | 320 | 1.6 | 4.8 | 0.05 | 0.64 | 0.64 | 91 | 1014.0 |
| 20260509203109 | 21 | 331 | 3.2 | 9.7 | 0.00 | 0.64 | 0.64 | 91 | 1014.1 |
| 20260509202608 | 21 | 348 | 3.2 | 8.0 | 0.00 | 0.64 | 0.64 | 91 | 1014.3 |
| 20260509202059 | 21 | 13 | 3.2 | 8.0 | 0.00 | 0.64 | 0.64 | 91 | 1014.1 |
| 20260509201558 | 21 | 282 | 0.0 | 6.4 | 0.00 | 0.64 | 0.64 | 91 | 1014.2 |
| 20260509201057 | 21 | 350 | 0.0 | 4.8 | 0.05 | 0.64 | 0.64 | 91 | 1014.1 |
| 20260509200556 | 21 | 323 | 3.2 | 6.4 | 0.05 | 0.64 | 0.64 | 91 | 1014.1 |
| 20260509200053 | 22 | 310 | 1.6 | 6.4 | 0.30 | 0.61 | 0.61 | 91 | 1013.9 |
| 20260509195548 | 21 | 338 | 3.2 | 4.8 | 1.19 | 0.61 | 0.61 | 91 | 1014.1 |
| 20260509195043 | 21 | 330 | 3.2 | 6.4 | 0.66 | 0.51 | 0.51 | 91 | 1014.2 |
| 20260509194538 | 21 | 208 | 0.0 | 8.0 | 0.23 | 0.43 | 0.43 | 91 | 1014.2 |
| 20260509194036 | 21 | 333 | 3.2 | 8.0 | 0.13 | 0.38 | 0.38 | 91 | 1014.2 |
| 20260509193536 | 22 | 352 | 3.2 | 11.3 | 0.13 | 0.38 | 0.38 | 91 | 1014.0 |
| 20260509193033 | 22 | 208 | 1.6 | 14.5 | 0.13 | 0.38 | 0.38 | 91 | 1013.8 |
| 20260509192530 | 23 | 275 | 0.0 | 3.2 | 0.36 | 0.36 | 0.36 | 91 | 1013.6 |
| 20260509192025 | 23 | 234 | 0.0 | 3.2 | 0.53 | 0.33 | 0.33 | 91 | 1013.7 |
| 20260509191519 | 23 | 217 | 0.0 | 3.2 | 0.43 | 0.28 | 0.28 | 90 | 1013.7 |
| 20260509191015 | 23 | 241 | 0.0 | 3.2 | 0.18 | 0.23 | 0.23 | 89 | 1013.7 |
| 20260509190512 | 24 | 228 | 1.6 | 4.8 | 0.05 | 0.23 | 0.23 | 87 | 1013.6 |
| 20260509190010 | 25 | 205 | 0.0 | 4.8 | 0.00 | 0.20 | 0.20 | 84 | 1013.4 |
| 20260509185507 | 25 | 243 | 0.0 | 4.8 | 0.00 | 0.20 | 0.20 | 81 | 1013.4 |
| 20260509185004 | 25 | 214 | 3.2 | 6.4 | 0.00 | 0.20 | 0.20 | 80 | 1013.4 |
| 20260509184503 | 26 | 239 | 8.0 | 11.3 | 0.00 | 0.20 | 0.20 | 79 | 1013.5 |
| 20260509183958 | 26 | 187 | 3.2 | 8.0 | 0.00 | 0.20 | 0.20 | 79 | 1013.6 |
| 20260509183452 | 26 | 209 | 3.2 | 11.3 | 0.00 | 0.20 | 0.20 | 78 | 1013.6 |
| 20260509182949 | 26 | 244 | 3.2 | 8.0 | 0.00 | 0.20 | 0.20 | 78 | 1013.7 |
| 20260509182445 | 26 | 204 | 0.0 | 6.4 | 0.00 | 0.20 | 0.20 | 81 | 1013.8 |
| 20260509181938 | 26 | 214 | 3.2 | 8.0 | 0.00 | 0.20 | 0.20 | 79 | 1013.7 |
| 20260509181435 | 26 | 231 | 1.6 | 6.4 | 0.00 | 0.20 | 0.20 | 81 | 1013.8 |
| 20260509180932 | 25 | 217 | 0.0 | 3.2 | 0.00 | 0.20 | 0.20 | 82 | 1013.4 |
| 20260509180427 | 25 | 201 | 4.8 | 9.7 | 0.00 | 0.20 | 0.20 | 82 | 1013.9 |
| 20260509175924 | 26 | 205 | 0.0 | 6.4 | 0.00 | 0.20 | 0.20 | 80 | 1013.7 |
| 20260509175421 | 26 | 254 | 0.0 | 6.4 | 0.00 | 0.20 | 0.20 | 80 | 1013.8 |
| 20260509174917 | 26 | 234 | 3.2 | 8.0 | 0.00 | 0.20 | 0.20 | 77 | 1013.9 |
| 20260509174413 | 27 | 199 | 1.6 | 4.8 | 0.00 | 0.20 | 0.20 | 76 | 1013.7 |
| 20260509173909 | 27 | 157 | 3.2 | 6.4 | 0.00 | 0.20 | 0.20 | 76 | 1013.9 |
| 20260509173403 | 27 | 236 | 8.0 | 9.7 | 0.00 | 0.20 | 0.20 | 75 | 1013.7 |
| 20260509172901 | 27 | 270 | 0.0 | 6.4 | 0.00 | 0.20 | 0.20 | 76 | 1013.9 |
| 20260509172357 | 27 | 218 | 1.6 | 8.0 | 0.00 | 0.20 | 0.20 | 77 | 1013.9 |
| 20260509171853 | 26 | 328 | 0.0 | 6.4 | 0.00 | 0.20 | 0.20 | 79 | 1013.8 |
| 20260509171349 | 26 | 264 | 3.2 | 6.4 | 0.00 | 0.20 | 0.20 | 78 | 1013.8 |
| 20260509170845 | 26 | 233 | 1.6 | 6.4 | 0.00 | 0.20 | 0.20 | 76 | 1014.0 |
| 20260509170336 | 26 | 234 | 4.8 | 12.9 | 0.00 | 0.20 | 0.20 | 77 | 1014.2 |
| 20260509165836 | 27 | 202 | 0.0 | 3.2 | 0.00 | 0.20 | 0.20 | 76 | 1014.2 |
| 20260509165330 | 26 | 289 | 3.2 | 6.4 | 0.00 | 0.20 | 0.20 | 76 | 1014.1 |
| 20260509164827 | 26 | 87 | 4.8 | 6.4 | 0.00 | 0.20 | 0.20 | 77 | 1014.1 |
| 20260509164323 | 26 | 42 | 0.0 | 6.4 | 0.00 | 0.20 | 0.20 | 78 | 1014.0 |
| 20260509163819 | 26 | 268 | 3.2 | 12.9 | 0.00 | 0.20 | 0.20 | 78 | 1014.2 |
| 20260509163316 | 26 | 21 | 0.0 | 8.0 | 0.00 | 0.20 | 0.20 | 78 | 1014.2 |
| 20260509162816 | 26 | 51 | 0.0 | 4.8 | 0.00 | 0.20 | 0.20 | 78 | 1014.1 |
| 20260509162309 | 26 | 264 | 6.4 | 8.0 | 0.00 | 0.20 | 0.20 | 78 | 1014.1 |
| 20260509161805 | 26 | 197 | 0.0 | 4.8 | 0.00 | 0.20 | 0.20 | 78 | 1014.2 |
| 20260509161302 | 26 | 65 | 1.6 | 3.2 | 0.00 | 0.20 | 0.20 | 77 | 1014.3 |
| 20260509160757 | 25 | 280 | 0.0 | 4.8 | 0.00 | 0.20 | 0.20 | 81 | 1014.2 |
| 20260509160254 | 25 | 343 | 4.8 | 8.0 | 0.00 | 0.20 | 0.20 | 78 | 1014.2 |
| 20260509155748 | 26 | 241 | 3.2 | 4.8 | 0.00 | 0.20 | 0.20 | 79 | 1014.0 |
| 20260509155246 | 25 | 11 | 3.2 | 6.4 | 0.00 | 0.20 | 0.20 | 80 | 1013.8 |
| 20260509154741 | 25 | 11 | 1.6 | 4.8 | 0.00 | 0.20 | 0.20 | 81 | 1013.6 |
| 20260509154239 | 25 | 352 | 1.6 | 3.2 | 0.00 | 0.20 | 0.20 | 82 | 1013.8 |
| 20260509153736 | 25 | 9 | 1.6 | 3.2 | 0.00 | 0.20 | 0.20 | 82 | 1014.1 |
| 20260509153231 | 24 | 300 | 0.0 | 6.4 | 0.00 | 0.20 | 0.20 | 80 | 1014.0 |
| 20260509152728 | 25 | 31 | 3.2 | 4.8 | 0.00 | 0.20 | 0.20 | 80 | 1014.3 |
| 20260509152225 | 25 | 328 | 3.2 | 6.4 | 0.00 | 0.20 | 0.20 | 80 | 1014.5 |
| 20260509151722 | 24 | 322 | 0.0 | 4.8 | 0.00 | 0.20 | 0.20 | 81 | 1014.4 |
| 20260509151219 | 23 | 325 | 1.6 | 6.4 | 0.00 | 0.20 | 0.20 | 82 | 1014.8 |
| 20260509150716 | 23 | 19 | 0.0 | 4.8 | 0.00 | 0.20 | 0.20 | 83 | 1014.9 |
| 20260509150214 | 23 | 13 | 0.0 | 4.8 | 0.00 | 0.20 | 0.20 | 85 | 1015.2 |
| 20260509145711 | 23 | 342 | 0.0 | 4.8 | 0.00 | 0.20 | 0.20 | 86 | 1015.2 |
| 20260509145206 | 23 | 6 | 0.0 | 8.0 | 0.00 | 0.20 | 0.20 | 86 | 1015.0 |
| 20260509144703 | 22 | 0 | 3.2 | 4.8 | 0.00 | 0.20 | 0.20 | 87 | 1015.2 |
| 20260509144200 | 22 | 350 | 1.6 | 6.4 | 0.00 | 0.20 | 0.20 | 89 | 1015.0 |
| 20260509143657 | 22 | 342 | 0.0 | 4.8 | 0.00 | 0.20 | 0.20 | 91 | 1015.0 |
| 20260509143154 | 22 | 61 | 0.0 | 1.6 | 0.00 | 0.20 | 0.20 | 91 | 1014.7 |
| 20260509142649 | 22 | 357 | 1.6 | 3.2 | 0.00 | 0.20 | 0.20 | 91 | 1014.6 |
| 20260509142147 | 21 | 337 | 0.0 | 4.8 | 0.00 | 0.20 | 0.20 | 91 | 1014.6 |
| 20260509141642 | 22 | 11 | 0.0 | 4.8 | 0.00 | 0.20 | 0.20 | 91 | 1014.6 |
| 20260509141139 | 21 | 320 | 0.0 | 4.8 | 0.00 | 0.20 | 0.20 | 91 | 1014.7 |
| 20260509140636 | 21 | 241 | 0.0 | 8.0 | 0.00 | 0.20 | 0.20 | 91 | 1014.6 |
| 20260509140134 | 21 | 29 | 1.6 | 4.8 | 0.00 | 0.20 | 0.20 | 91 | 1014.5 |
| 20260509135631 | 21 | 20 | 0.0 | 4.8 | 0.00 | 0.20 | 0.20 | 91 | 1014.7 |
| 20260509135129 | 21 | 20 | 3.2 | 4.8 | 0.00 | 0.20 | 0.20 | 91 | 1014.4 |
| 20260509134625 | 21 | 15 | 0.0 | 3.2 | 0.00 | 0.20 | 0.20 | 91 | 1014.4 |
| 20260509134123 | 21 | 215 | 0.0 | 1.6 | 0.00 | 0.20 | 0.20 | 91 | 1014.7 |
| 20260509133620 | 20 | 224 | 3.2 | 4.8 | 0.00 | 0.20 | 0.20 | 91 | 1014.5 |
| 20260509133117 | 20 | 225 | 3.2 | 4.8 | 0.00 | 0.20 | 0.20 | 91 | 1014.5 |
| 20260509132615 | 21 | 306 | 0.0 | 3.2 | 0.00 | 0.20 | 0.20 | 91 | 1014.3 |
| 20260509132113 | 20 | 240 | 0.0 | 1.6 | 0.00 | 0.20 | 0.20 | 91 | 1014.2 |
| 20260509131609 | 21 | 336 | 0.0 | 3.2 | 0.00 | 0.20 | 0.20 | 91 | 1014.1 |
| 20260509131106 | 20 | 336 | 0.0 | 1.6 | 0.00 | 0.20 | 0.20 | 91 | 1014.0 |
| 20260509130602 | 20 | 29 | 0.0 | 3.2 | 0.00 | 0.20 | 0.20 | 91 | 1014.1 |
| 20260509130058 | 21 | 282 | 0.0 | 1.6 | 0.00 | 0.20 | 0.20 | 91 | 1013.9 |
| 20260509125555 | 20 | 7 | 0.0 | 3.2 | 0.00 | 0.20 | 0.20 | 91 | 1013.8 |
| 20260509125052 | 20 | 3 | 1.6 | 4.8 | 0.00 | 0.20 | 0.20 | 91 | 1014.0 |
| 20260509124548 | 20 | 318 | 0.0 | 3.2 | 0.00 | 0.20 | 0.20 | 91 | 1014.0 |
| 20260509124045 | 20 | 342 | 0.0 | 4.8 | 0.00 | 0.20 | 0.20 | 91 | 1013.9 |
| 20260509123543 | 20 | 17 | 0.0 | 3.2 | 0.00 | 0.20 | 0.20 | 91 | 1013.7 |
| 20260509123039 | 20 | 0 | 0.0 | 3.2 | 0.00 | 0.20 | 0.20 | 91 | 1013.7 |
| 20260509122536 | 20 | 332 | 4.8 | 4.8 | 0.00 | 0.20 | 0.20 | 91 | 1013.7 |
| 20260509122033 | 20 | 47 | 0.0 | 3.2 | 0.00 | 0.20 | 0.20 | 91 | 1013.5 |
| 20260509121529 | 20 | 4 | 0.0 | 3.2 | 0.00 | 0.20 | 0.20 | 91 | 1013.8 |
| 20260509121027 | 20 | 351 | 0.0 | 3.2 | 0.00 | 0.20 | 0.20 | 91 | 1013.8 |
| 20260509120525 | 20 | 336 | 0.0 | 3.2 | 0.00 | 0.20 | 0.20 | 91 | 1013.7 |
| 20260509120023 | 20 | 353 | 0.0 | 4.8 | 0.00 | 0.20 | 0.20 | 91 | 1013.8 |
| 20260509115520 | 19 | 3 | 0.0 | 3.2 | 0.00 | 0.20 | 0.20 | 91 | 1013.8 |
| 20260509115018 | 19 | 337 | 1.6 | 3.2 | 0.00 | 0.20 | 0.20 | 91 | 1013.8 |
| 20260509114515 | 19 | 350 | 3.2 | 3.2 | 0.00 | 0.20 | 0.20 | 91 | 1013.8 |
| 20260509114014 | 19 | 345 | 0.0 | 3.2 | 0.00 | 0.20 | 0.20 | 91 | 1013.6 |
| 20260509113512 | 19 | 6 | 0.0 | 3.2 | 0.00 | 0.20 | 0.20 | 91 | 1013.4 |
| 20260509113010 | 19 | 3 | 1.6 | 4.8 | 0.00 | 0.20 | 0.20 | 91 | 1013.5 |
| 20260509112506 | 19 | 42 | 1.6 | 6.4 | 0.00 | 0.20 | 0.20 | 91 | 1013.3 |
| 20260509112002 | 19 | 315 | 3.2 | 3.2 | 0.00 | 0.20 | 0.20 | 91 | 1013.5 |
| 20260509111500 | 18 | 354 | 1.6 | 4.8 | 0.00 | 0.20 | 0.20 | 91 | 1013.2 |
| 20260509110957 | 18 | 345 | 3.2 | 3.2 | 0.00 | 0.20 | 0.20 | 91 | 1013.0 |
| 20260509110453 | 18 | 339 | 3.2 | 4.8 | 0.00 | 0.20 | 0.20 | 91 | 1013.0 |
| 20260509105951 | 18 | 16 | 0.0 | 4.8 | 0.00 | 0.20 | 0.20 | 91 | 1013.0 |
| 20260509105449 | 18 | 353 | 0.0 | 3.2 | 0.00 | 0.20 | 0.20 | 91 | 1013.1 |
| 20260509104946 | 18 | 309 | 0.0 | 3.2 | 0.00 | 0.20 | 0.20 | 91 | 1012.8 |
| 20260509104443 | 18 | 357 | 3.2 | 4.8 | 0.00 | 0.20 | 0.20 | 91 | 1012.4 |
| 20260509103940 | 18 | 29 | 0.0 | 3.2 | 0.00 | 0.20 | 0.20 | 91 | 1012.3 |
| 20260509103438 | 18 | 3 | 3.2 | 6.4 | 0.00 | 0.20 | 0.20 | 91 | 1012.6 |
| 20260509102936 | 18 | 333 | 1.6 | 4.8 | 0.00 | 0.20 | 0.20 | 91 | 1012.3 |
| 20260509102433 | 18 | 289 | 0.0 | 1.6 | 0.00 | 0.20 | 0.20 | 91 | 1012.4 |
| 20260509101929 | 18 | 311 | 0.0 | 3.2 | 0.00 | 0.20 | 0.20 | 91 | 1012.5 |
| 20260509101425 | 18 | 353 | 3.2 | 4.8 | 0.00 | 0.20 | 0.20 | 91 | 1012.6 |
| 20260509100923 | 18 | 358 | 1.6 | 4.8 | 0.00 | 0.20 | 0.20 | 91 | 1012.4 |
| 20260509100420 | 18 | 328 | 0.0 | 1.6 | 0.00 | 0.20 | 0.20 | 91 | 1012.1 |
| 20260509095916 | 18 | 318 | 0.0 | 1.6 | 0.00 | 0.20 | 0.20 | 91 | 1011.7 |
| 20260509095414 | 18 | 318 | 0.0 | 3.2 | 0.00 | 0.20 | 0.20 | 91 | 1011.9 |
| 20260509094911 | 18 | 31 | 1.6 | 1.6 | 0.00 | 0.20 | 0.20 | 91 | 1011.7 |
| 20260509094407 | 18 | 318 | 0.0 | 0.0 | 0.00 | 0.20 | 0.20 | 91 | 1012.0 |
| 20260509093905 | 18 | 249 | 0.0 | 3.2 | 0.00 | 0.20 | 0.20 | 91 | 1011.9 |
| 20260509093402 | 18 | 358 | 0.0 | 6.4 | 0.00 | 0.20 | 0.20 | 91 | 1011.7 |
| 20260509092901 | 18 | 304 | 1.6 | 3.2 | 0.00 | 0.20 | 0.20 | 91 | 1011.4 |
| 20260509092357 | 19 | 260 | 0.0 | 3.2 | 0.00 | 0.20 | 0.20 | 91 | 1011.4 |
| 20260509091856 | 18 | 310 | 0.0 | 1.6 | 0.00 | 0.20 | 0.20 | 91 | 1011.7 |
| 20260509091352 | 18 | 241 | 0.0 | 3.2 | 0.00 | 0.20 | 0.20 | 91 | 1011.9 |
| 20260509090850 | 18 | 326 | 1.6 | 4.8 | 0.00 | 0.20 | 0.20 | 91 | 1012.0 |
| 20260509090347 | 19 | 175 | 0.0 | 6.4 | 0.00 | 0.20 | 0.20 | 91 | 1011.7 |
| 20260509085844 | 18 | 298 | 3.2 | 6.4 | 0.00 | 0.20 | 0.20 | 91 | 1011.4 |
| 20260509085341 | 18 | 339 | 1.6 | 6.4 | 0.00 | 0.20 | 0.20 | 91 | 1011.6 |
| 20260509084838 | 18 | 324 | 0.0 | 1.6 | 0.00 | 0.20 | 0.20 | 91 | 1012.0 |
| 20260509084335 | 18 | 34 | 0.0 | 1.6 | 0.00 | 0.20 | 0.20 | 91 | 1012.5 |
| 20260509083833 | 18 | 345 | 0.0 | 3.2 | 0.00 | 0.20 | 0.20 | 91 | 1012.8 |
| 20260509083329 | 18 | 0 | 0.0 | 0.0 | 0.00 | 0.20 | 0.20 | 91 | 1012.8 |
| 20260509082826 | 18 | 351 | 0.0 | 3.2 | 0.00 | 0.20 | 0.20 | 91 | 1013.1 |
| 20260509082322 | 18 | 5 | 0.0 | 3.2 | 0.00 | 0.20 | 0.20 | 91 | 1013.2 |
| 20260509081820 | 18 | 345 | 0.0 | 1.6 | 0.00 | 0.20 | 0.20 | 91 | 1013.2 |
| 20260509081317 | 18 | 349 | 0.0 | 3.2 | 0.00 | 0.20 | 0.20 | 91 | 1013.1 |
| 20260509080815 | 18 | 322 | 1.6 | 3.2 | 0.00 | 0.20 | 0.20 | 91 | 1013.1 |
| 20260509080312 | 18 | 333 | 1.6 | 4.8 | 0.00 | 0.20 | 0.20 | 91 | 1012.6 |
| 20260509075810 | 18 | 325 | 3.2 | 6.4 | 0.00 | 0.20 | 0.20 | 91 | 1012.8 |
| 20260509075307 | 18 | 344 | 0.0 | 3.2 | 0.00 | 0.20 | 0.20 | 91 | 1012.6 |
| 20260509074804 | 18 | 256 | 1.6 | 3.2 | 0.00 | 0.20 | 0.20 | 91 | 1012.7 |
| 20260509074302 | 18 | 330 | 0.0 | 3.2 | 0.00 | 0.20 | 0.20 | 91 | 1012.7 |
| 20260509073758 | 18 | 347 | 0.0 | 3.2 | 0.00 | 0.20 | 0.20 | 91 | 1012.6 |